{"data":{"norad_id":68918,"intl_designator":"2026-097Z","name":"STARLINK-37529","alt_names":[],"object_type":"PAYLOAD","status":"ACTIVE","operator":null,"country":"US","launch_date":"2026-04-30","launch_site_code":"AFWTR","launch_vehicle":null,"mission":null,"orbit_class":"UNKNOWN","rcs_meters":null,"size_class":null,"mass_kg":null,"dimensions":null,"purposes":["comms"],"wikipedia_slug":null,"has_3d_model":false,"image_url":null,"decayed_at":null,"tle_current":{"epoch":"2026-05-25T02:50:18.522816Z","epoch_age_seconds":58118,"freshness":"FRESH","line1":"1 68918U 26097Z   26145.11826994  .00049139  00000+0  89941-3 0  9993","line2":"2 68918  97.2867 340.8543 0001023 106.8628 253.2735 15.49193539  3949","mean_motion":15.49193539,"eccentricity":0.0001023,"inclination_deg":97.2867,"raan_deg":340.8543,"arg_perigee_deg":106.8628,"mean_anomaly_deg":253.2735,"bstar":0.00089941,"rev_number":394,"period_min":92.951588277958,"perigee_km":418.388635703,"apogee_km":419.77934711784,"semimajor_km":6797.2209914104,"source":"CELESTRAK","updated_at":"2026-05-25T13:38:22.071401Z"}}}